Hourly Data Report for November 22, 2018

VICTORIA UNIVERSITY CS
BRITISH COLUMBIA
Current Station Operator: ECCC - MSC

48°27'25.200" N
123°18'16.600" W
60.10 m
1018598
71783
WYJ

Download Data

Hourly Data (November 2018)
Hourly Data Report for November 22, 2018
TIME
LST
Temp Definition
°C
Dew Point Definition
°C
Rel Hum Definition
%
Precip. Amount Definition
mm

Wind Dir Definition
10's deg

Wind Spd Definition
km/h
Visibility Definition
km
Stn Press Definition
kPa
Hmdx Definition


Wind Chill Definition


Weather Definition


00:00 8.2 7.9 98 2.6 26 2   99.57     LegendNANA
01:00 8.2 8.0 98 2.0 29 4   99.52     LegendNANA
02:00 8.3 8.1 98 1.0 0 1   99.51     LegendNANA
03:00 8.4 8.2 98 0.5 15 1   99.52     LegendNANA
04:00 8.2 8.0 98 0.5   0   99.49     LegendNANA
05:00 7.7 7.5 98 0.0   0   99.51     LegendNANA
06:00 8.2 8.0 99 0.0 17 3   99.54     LegendNANA
07:00 8.2 8.0 99 0.0 17 2   99.54     LegendNANA
08:00 8.3 8.1 99 0.0 8 4   99.51     LegendNANA
09:00 8.6 8.3 99 0.0 8 5   99.43     LegendNANA
10:00 8.4 8.0 97 0.0 10 5   99.31     LegendNANA
11:00 8.8 7.7 93 0.0 12 3   99.22     LegendNANA
12:00 9.4 7.3 87 0.0 13 4   99.13     LegendNANA
13:00 9.7 6.9 83 0.0 14 7   98.94     LegendNANA
14:00 9.7 6.7 82 0.0 15 11   98.91     LegendNANA
15:00 8.8 7.1 89 0.0 16 10   98.99     LegendNANA
16:00 8.4 7.2 93 0.2 17 3   99.07     LegendNANA
17:00 7.6 7.0 96 0.0 26 1   99.18     LegendNANA
18:00 7.5 6.9 96 0.0 23 3   99.25     LegendNANA
19:00 5.7 4.9 95 0.0 17 3   99.30     LegendNANA
20:00 4.5 4.1 97 0.0 17 3   99.40     LegendNANA
21:00 5.2 4.8 97 0.2 18 3   99.45     LegendNANA
22:00 6.0 5.7 98 0.0 0 1   99.49     LegendNANA
23:00 6.4 6.0 97 1.1 20 3   99.59     LegendNANA

Notes on Data Quality.

Legend

  • E = Estimated
  • M = Missing
  • NA = Not Available*
  • [empty] = Indicates an unobserved value
Date modified: